Weather History for Newark, NJ

Change the Weather History Date:

Monday, October 15, 2012

  Actual Average Record
Temperature  
Mean Temperature 66 °F 57 °F  
Max Temperature 72 °F 66 °F 86 °F (1956)
Min Temperature 59 °F 48 °F 32 °F (1937)
Degree Days  
Heating Degree Days 0 9  
Month to date heating degree days 95 99  
Since 1 July heating degree days 115 144  
Cooling Degree Days 1 0  
Month to date cooling degree days 17 14  
Year to date cooling degree days 1448 1188  
Growing Degree Days 16 (Base 50)    
Moisture  
Dew Point 60 °F    
Average Humidity 80    
Maximum Humidity 93    
Minimum Humidity 66    
Precipitation  
Precipitation 0.33 in 0.12 in 1.76 in (1943)
Month to date precipitation 1.35 1.78  
Year to date precipitation 27.37 36.97  
Snow  
Snow 0.00 in 0.00 in 0.00 in (2002)
Month to date snowfall 0.0 0.0  
Since 1 July snowfall 0.0 0.0  
Snow Depth 0.00 in    
Sea Level Pressure  
Sea Level Pressure 29.73 in    
Wind  
Wind Speed 10 mph (SW)    
Max Wind Speed 24 mph    
Max Gust Speed 31 mph    
Visibility 8 miles    
Events Rain    
T = Trace of Precipitation, MM = Missing Value Source: NWS Daily Summary

Daily Weather History Graph

Daily Weather History Graph

Search for Another Location

Airport:

Trip Planner

Search our weather history database for the weather conditions in past years. The results will help you decide how hot, cold, wet, or windy it might be!

Date:

Astronomy

Oct. 15, 2012 Rise Set
Actual Time 7:08 AM EDT 6:15 PM EDT
Civil Twilight 6:40 AM EDT 6:43 PM EDT
Nautical Twilight 6:08 AM EDT 7:14 PM EDT
Astronomical Twilight 5:37 AM EDT 7:46 PM EDT
Moon 7:15 AM EDT (10/15) 6:13 PM EDT (10/15)
Length of Visible Light 12h 02m
Length of Day
11h 07m
New Moon, 0% of the Moon is Illuminated
Oct 15
New Moon
Oct 21
First Quarter
Oct 29
Full
Nov 6
Last Quarter
Nov 13
New

Hourly Weather History & Observations

Time (EDT) Temp. Dew Point Humidity Pressure Visibility Wind Dir Wind Speed Gust Speed Precip Events Conditions
12:51 AM 62.1 °F 55.9 °F 80% 29.93 in 10.0 mi South 5.8 mph - N/A   Mostly Cloudy
1:51 AM 62.1 °F 55.9 °F 80% 29.92 in 10.0 mi South 6.9 mph - N/A   Mostly Cloudy
2:51 AM 62.1 °F 57.0 °F 84% 29.88 in 10.0 mi South 8.1 mph - N/A   Mostly Cloudy
3:51 AM 63.0 °F 57.9 °F 84% 29.85 in 10.0 mi South 6.9 mph - N/A   Overcast
4:51 AM 64.0 °F 57.9 °F 80% 29.83 in 10.0 mi South 6.9 mph - N/A   Overcast
5:51 AM 64.9 °F 57.9 °F 78% 29.81 in 10.0 mi South 9.2 mph - N/A   Mostly Cloudy
6:51 AM 66.0 °F 57.9 °F 75% 29.79 in 10.0 mi South 8.1 mph - N/A   Mostly Cloudy
7:51 AM 66.0 °F 57.9 °F 75% 29.78 in 10.0 mi South 11.5 mph - N/A   Mostly Cloudy
8:51 AM 66.9 °F 59.0 °F 76% 29.78 in 10.0 mi South 9.2 mph - N/A   Mostly Cloudy
9:51 AM 71.1 °F 59.0 °F 66% 29.78 in 10.0 mi SSW 17.3 mph 24.2 mph N/A   Mostly Cloudy
10:51 AM 72.0 °F 59.0 °F 64% 29.76 in 10.0 mi SSW 13.8 mph 24.2 mph N/A   Overcast
11:51 AM 71.1 °F 60.1 °F 68% 29.75 in 10.0 mi SW 19.6 mph 26.5 mph 0.00 in Rain Light Rain
12:51 PM 71.1 °F 59.0 °F 66% 29.73 in 10.0 mi SW 15.0 mph 26.5 mph 0.00 in   Overcast
1:51 PM 70.0 °F 60.1 °F 71% 29.70 in 10.0 mi SW 13.8 mph 21.9 mph N/A   Overcast
2:51 PM 69.1 °F 60.1 °F 73% 29.68 in 9.0 mi WSW 11.5 mph - 0.00 in Rain Light Rain
3:51 PM 68.0 °F 60.1 °F 76% 29.68 in 10.0 mi SSW 13.8 mph 18.4 mph 0.00 in Rain Light Rain
4:51 PM 66.0 °F 62.1 °F 87% 29.66 in 7.0 mi SW 9.2 mph - 0.01 in Rain Light Rain
5:42 PM 64.4 °F 62.6 °F 94% 29.66 in 4.0 mi SW 4.6 mph - 0.02 in Rain Light Rain
5:43 PM 64.4 °F 62.6 °F 94% 29.66 in 2.0 mi SW 5.8 mph - 0.02 in Rain Rain
5:48 PM 64.4 °F 62.6 °F 94% 29.66 in 1.5 mi WSW 6.9 mph - 0.03 in Rain Light Rain
5:51 PM 64.9 °F 63.0 °F 93% 29.65 in 1.5 mi West 5.8 mph - 0.07 in Rain Heavy Rain
5:55 PM 64.4 °F 62.6 °F 94% 29.65 in 2.0 mi WSW 8.1 mph - 0.02 in Rain Heavy Rain
6:04 PM 64.4 °F 62.6 °F 94% 29.64 in 2.5 mi SW 9.2 mph - 0.07 in Rain Rain
6:26 PM 64.4 °F 62.6 °F 94% 29.64 in 5.0 mi South 4.6 mph - 0.11 in Rain Light Rain
6:51 PM 64.9 °F 63.0 °F 93% 29.65 in 6.0 mi West 6.9 mph - 0.15 in Rain Light Rain
6:59 PM 64.4 °F 64.4 °F 100% 29.66 in 2.5 mi West 8.1 mph - 0.03 in Rain Rain
7:13 PM 62.6 °F 60.8 °F 94% 29.66 in 3.0 mi West 15.0 mph 20.7 mph 0.08 in Rain Light Rain
7:51 PM 62.1 °F 59.0 °F 90% 29.66 in 10.0 mi NW 6.9 mph - 0.10 in   Overcast
8:51 PM 61.0 °F 57.9 °F 90% 29.66 in 10.0 mi WSW 5.8 mph - N/A   Mostly Cloudy
9:51 PM 61.0 °F 57.0 °F 87% 29.67 in 10.0 mi WSW 9.2 mph - N/A   Mostly Cloudy
10:51 PM 60.1 °F 57.9 °F 93% 29.68 in 10.0 mi WSW 10.4 mph - N/A   Overcast
11:51 PM 60.1 °F 57.9 °F 93% 29.67 in 10.0 mi West 10.4 mph - 0.00 in   Overcast